Meteo Giornale » Osservazioni meteo Stati Uniti (USA) » Daytona Beach
ore: 00:53 - Osservazioni Meteo Daytona Beach
Lat. 29° 10' N Lon. 81° 3' W Alt. 10 metri s.l.m.
27 °C
Nuvoloso
Temp. 24 Ore
25 °C
31 °C
Nord
5.5 Km/h
Dew point 25 °C
Umidità 88 %
Visibilità 10 Km
Il sole sorge alle ore 07:02
Il sole tramonta alle ore 19:46
| Data e Ora | Cielo e Fenomeni | T °C | DP °C | Um. % | Pres. hPa | Vis. km | Vento km/h | |
|---|---|---|---|---|---|---|---|---|
| Oggi h: 00:53 | Nuvoloso | 27 | 25 | 88 | 1017 | 10 | N 5.5 | |
| Ieri h: 23:53 | Poco Nuvoloso | 27 | 26 | 94 | 1017 | 10 | N 7.4 | |
| Ieri h: 22:53 | Poco Nuvoloso | 28 | 26 | 88 | 1017 | 10 | N/NE 13 | |
| Ieri h: 21:53 | Nuvoloso | 28 | 24 | 78 | 1017 | 10 | N/NE 14.8 | |
| Ieri h: 20:53 | Nuvoloso | 28 | 24 | 78 | 1017 | 10 | N/NE 13 | |
| Ieri h: 19:53 | Nuvoloso | 28 | 24 | 78 | 1016 | 10 | NE 16.7 | |
| Ieri h: 18:53 | Nuvoloso | 29 | 24 | 74 | 1016 | 10 | NE 18.5 | |
| Ieri h: 18:20 | Nuvoloso | 28 | 25 | 83 | 1017 | 10 | NE 16.7 | |
| Ieri h: 17:53 | Molto Nuvoloso | 28 | 25 | 83 | 1017 | 10 | E/NE 16.7 | |
| Ieri h: 17:49 | Molto Nuvoloso | 28 | 25 | 83 | 1017 | 10 | E/NE 18.5 | |
| Ieri h: 16:53 | Molto Nuvoloso | 29 | 24 | 74 | 1017 | 10 | NE 20.3 | |
| Ieri h: 15:53 | Nuvoloso | 31 | 25 | 70 | 1017 | 10 | NE 22.2 | |
| Ieri h: 14:53 | Poco Nuvoloso | 31 | 24 | 66 | 1017 | 10 | NE 20.3 | |
| Ieri h: 13:53 | Poco Nuvoloso | 31 | 24 | 66 | 1017 | 10 | NE 20.3 | |
| Ieri h: 12:53 | Nuvoloso | 31 | 24 | 66 | 1018 | 10 | N/NE 16.7 | |
| Ieri h: 11:53 | Nuvoloso | 31 | 24 | 66 | 1019 | 10 | N 18.5 | |
| Ieri h: 10:53 | Nuvoloso | 31 | 24 | 66 | 1018 | 10 | E 7.4 | |
| Ieri h: 09:53 | Nuvoloso | 29 | 25 | 79 | 1018 | 10 | E/NE 7.4 | |
| Ieri h: 08:53 | Poco Nuvoloso | 27 | 25 | 88 | 1018 | 10 | NE 7.4 | |
| Ieri h: 07:53 | Nuvoloso | 26 | 25 | 94 | 1017 | 14 | N/NE 7.4 | |
| Ieri h: 06:53 | Nuvoloso | 26 | 24 | 88 | 1017 | 10 | N 9.3 | |
| Ieri h: 05:53 | Nuvoloso | 25 | 24 | 94 | 1016 | 10 | N 5.5 | |
| Ieri h: 04:53 | Sereno | 25 | 24 | 94 | 1016 | 10 | N 0 | |
| Ieri h: 03:53 | Nuvoloso | 25 | 24 | 94 | 1016 | 10 | N 0 | |
| Ieri h: 02:53 | Nuvoloso | 25 | 24 | 94 | 1017 | 10 | N 0 | |
| Ieri h: 01:53 | Nuvoloso | 26 | 24 | 88 | 1017 | 10 | N 0 | |



